TimePDT,TemperatureF,Dew PointF,Humidity,Sea Level PressureIn,VisibilityMPH,Wind Direction,Wind SpeedMPH,Gust SpeedMPH,PrecipitationIn,Events,Conditions,WindDirDegrees,DateUTC
12:49 AM,32.0,30.2,93,30.13,0.2,NW,5.8,-,N/A,Fog,Fog,320,2013-03-17 07:49:00
12:56 AM,32.0,30.9,96,30.18,0.2,NNW,4.6,-,N/A,Fog,Fog,330,2013-03-17 07:56:00
1:19 AM,32.0,30.2,93,30.13,0.2,NNW,5.8,-,N/A,Fog,Fog,330,2013-03-17 08:19:00
1:39 AM,30.2,30.2,100,30.13,0.5,NW,6.9,-,N/A,Fog,Light Freezing Fog,320,2013-03-17 08:39:00
1:56 AM,30.9,30.0,96,30.18,0.5,NW,9.2,-,N/A,Fog,Light Freezing Fog,320,2013-03-17 08:56:00
2:12 AM,30.2,30.2,100,30.13,0.2,NNW,5.8,-,N/A,Fog,Light Freezing Fog,330,2013-03-17 09:12:00
2:36 AM,30.2,30.2,100,30.14,0.2,Variable,4.6,-,N/A,Fog,Light Freezing Fog,0,2013-03-17 09:36:00
2:56 AM,30.9,30.0,96,30.20,0.5,NNW,4.6,-,N/A,Fog,Light Freezing Fog,330,2013-03-17 09:56:00
3:56 AM,30.9,30.0,96,30.19,0.5,NNW,4.6,-,N/A,Fog,Light Freezing Fog,340,2013-03-17 10:56:00
4:02 AM,30.2,30.2,100,30.14,1.0,NNW,3.5,-,N/A,,Mist,330,2013-03-17 11:02:00
4:53 AM,30.2,28.4,93,30.13,1.5,Variable,4.6,-,N/A,,Overcast,0,2013-03-17 11:53:00
4:56 AM,30.0,28.9,96,30.19,1.2,Variable,4.6,-,N/A,,Overcast,0,2013-03-17 11:56:00
5:16 AM,30.2,28.4,93,30.14,0.5,Variable,3.5,-,N/A,Fog,Light Freezing Fog,0,2013-03-17 12:16:00
5:56 AM,30.0,28.9,96,30.22,0.5,NNW,3.5,-,N/A,Fog,Light Freezing Fog,340,2013-03-17 12:56:00
6:06 AM,30.2,28.4,93,30.16,1.0,Calm,Calm,-,N/A,,Mist,0,2013-03-17 13:06:00
6:12 AM,30.2,28.4,93,30.16,0.8,Variable,3.5,-,N/A,,Mist,0,2013-03-17 13:12:00
6:19 AM,28.4,28.4,100,30.17,0.8,Calm,Calm,-,N/A,,Mist,0,2013-03-17 13:19:00
6:56 AM,28.9,27.0,92,30.25,1.0,Variable,3.5,-,N/A,,Mist,0,2013-03-17 13:56:00
7:06 AM,28.4,26.6,93,30.17,1.5,Variable,5.8,-,N/A,,Overcast,0,2013-03-17 14:06:00
7:19 AM,28.4,26.6,93,30.18,2.5,Variable,4.6,-,N/A,,Overcast,0,2013-03-17 14:19:00
7:27 AM,28.4,26.6,93,30.18,1.2,Variable,5.8,-,N/A,,Overcast,0,2013-03-17 14:27:00
7:53 AM,28.4,26.6,93,30.19,0.5,Variable,5.8,-,0.00,Fog-Snow,Light Snow,0,2013-03-17 14:53:00
7:56 AM,28.0,27.0,96,30.27,0.5,Variable,6.9,-,0.00,Fog-Snow,Light Snow,0,2013-03-17 14:56:00
7:59 AM,28.4,26.6,93,30.19,0.2,North,6.9,-,0.00,Fog-Snow,Light Snow,350,2013-03-17 14:59:00
8:05 AM,28.4,26.6,93,30.19,0.5,Variable,5.8,-,0.00,Fog-Snow,Light Snow,0,2013-03-17 15:05:00
8:12 AM,26.6,26.6,100,30.19,1.5,Variable,6.9,-,0.00,Snow,Light Snow,0,2013-03-17 15:12:00
8:19 AM,26.6,24.8,93,30.19,3.0,Variable,5.8,-,0.00,,Overcast,0,2013-03-17 15:19:00
8:56 AM,26.1,24.1,92,30.28,10.0,Variable,6.9,-,0.00,,Scattered Clouds,0,2013-03-17 15:56:00
9:56 AM,27.0,25.0,92,30.28,10.0,North,8.1,-,N/A,,Partly Cloudy,10,2013-03-17 16:56:00
10:12 AM,28.4,26.6,93,30.20,10.0,North,3.5,-,N/A,,Mostly Cloudy,360,2013-03-17 17:12:00
10:46 AM,28.4,26.6,93,30.20,10.0,North,5.8,-,N/A,,Scattered Clouds,360,2013-03-17 17:46:00
10:56 AM,28.9,26.1,89,30.28,10.0,North,4.6,-,N/A,,Partly Cloudy,10,2013-03-17 17:56:00
11:56 AM,30.0,26.1,85,30.27,10.0,North,4.6,-,N/A,,Partly Cloudy,10,2013-03-17 18:56:00
12:56 PM,33.1,27.0,78,30.26,10.0,Variable,3.5,-,N/A,,Clear,0,2013-03-17 19:56:00
1:56 PM,35.1,26.1,70,30.25,10.0,Variable,3.5,-,N/A,,Clear,0,2013-03-17 20:56:00
2:56 PM,37.0,28.0,70,30.23,10.0,Variable,3.5,-,N/A,,Clear,0,2013-03-17 21:56:00
3:56 PM,37.9,26.1,62,30.22,10.0,Variable,3.5,-,N/A,,Clear,0,2013-03-17 22:56:00
4:56 PM,39.0,28.9,67,30.22,10.0,North,5.8,-,N/A,,Clear,350,2013-03-17 23:56:00
5:56 PM,37.0,28.0,70,30.22,10.0,Variable,3.5,-,N/A,,Clear,0,2013-03-18 00:56:00
6:56 PM,34.0,28.0,79,30.22,10.0,NNW,6.9,-,N/A,,Clear,340,2013-03-18 01:56:00
7:56 PM,33.1,26.1,75,30.23,10.0,North,10.4,-,N/A,,Clear,350,2013-03-18 02:56:00
8:56 PM,33.1,25.0,72,30.23,10.0,NNE,10.4,-,N/A,,Clear,20,2013-03-18 03:56:00
9:56 PM,30.9,25.0,79,30.24,10.0,North,9.2,-,N/A,,Clear,350,2013-03-18 04:56:00
10:56 PM,30.0,25.0,82,30.24,10.0,North,10.4,-,N/A,,Clear,360,2013-03-18 05:56:00
11:56 PM,32.0,24.1,73,30.23,10.0,Calm,Calm,-,N/A,,Clear,0,2013-03-18 06:56:00